Flag for Mexico Weather past 2 weeks in Querétaro, Querétaro, Mexico

Now
64 °F

Passing clouds.


Feels Like: 64 °F
Forecast: 55 / 87 °F
Wind: 5 mph from Southwest

Location: Queretaro - Qro.

Current Time: Apr 21, 2015 at 2:03:50 AM

Latest Report: Apr 21, 2015 at 12:45 AM


Visibility: 7 mi

Pressure: 30.24 "Hg

Humidity: 78%

Dew point: 57 °F

Location of QuerétaroLocation

Historic Weather in Querétaro — Graph

°F

Querétaro temperature yesterday

Maximum temperature yesterday: 84 °F (at 3:50 PM)
Minimum temperature yesterday: 50 °F (at 6:45 AM)
Average temperature yesterday: 69 °F

Past Weeks' High & Low Weather Summary

 TemperatureHumidityPressure
High84 °F (Apr 16, 3:45 PM)100% (Apr 9, 8:45 AM)30.36 "Hg (Apr 9, 8:45 AM)
Low46 °F (Apr 10, 7:45 AM)13% (Apr 16, 5:45 PM)30.08 "Hg (Apr 20, 4:55 PM)
Average66 °F57%30.24 "Hg
* Reported Apr 6 12:45 AM — Apr 21 12:45 AM, Querétaro, Weather by CustomWeather, © 2015

Note: Actual official high and low records may vary slightly from our data, if they occured in-between our weather recording intervals... More about our weather records

Advertising

Querétaro weather history for previous 24 hours

 ConditionsComfort  
Time TempWeatherWind HumidityBarometerVisibility
12:45 AM
Tue, Apr 21
64 °FPassing clouds.5 mph78%30.24 "Hg7 mi
11:45 PM
Mon, Apr 20
68 °FPassing clouds.12 mph69%30.24 "Hg7 mi
10:45 PM70 °FPassing clouds.16 mph64%30.21 "Hg7 mi
9:45 PM72 °FPassing clouds.5 mph38%30.16 "Hg7 mi
8:45 PM73 °FScattered clouds.6 mph38%30.13 "Hg10 mi
7:45 PM79 °FScattered clouds.10 mph30%30.10 "Hg12 mi
5:45 PM84 °FBroken clouds.13 mph20%30.08 "Hg12 mi
4:55 PM84 °FScattered clouds.14 mph20%30.08 "Hg12 mi
3:50 PM84 °FScattered clouds.2 mph20%30.10 "Hg12 mi
2:45 PM82 °FScattered clouds.12 mph28%30.13 "Hg12 mi
1:45 PM81 °FScattered clouds.2 mph30%30.17 "Hg8 mi
12:45 PM77 °FScattered clouds.12 mph36%30.20 "Hg8 mi
11:45 AM73 °FScattered clouds.5 mph41%30.22 "Hg7 mi
10:45 AM70 °FSunny.5 mph46%30.25 "Hg7 mi
9:45 AM66 °FSunny.3 mph49%30.25 "Hg7 mi
8:45 AM61 °FSunny.No wind55%30.23 "Hg7 mi
7:45 AM50 °FClear.5 mph71%30.21 "Hg8 mi
6:45 AM50 °FPassing clouds.No wind71%30.19 "Hg8 mi
5:45 AM52 °FPassing clouds.No wind67%30.17 "Hg10 mi
4:45 AM52 °FClear.No wind67%30.16 "Hg10 mi
3:45 AM55 °FPassing clouds.No wind59%30.17 "Hg10 mi
Weather by CustomWeather, © 2015

See weather overviewHow to use our weather pages